[{"OBJECT_NAME":"STARLINK-35393","OBJECT_ID":"2025-221E","EPOCH":"2026-09-12T03:21:02.195136","MEAN_MOTION":15.34402231,"ECCENTRICITY":0.00011421,"INCLINATION":53.1583,"RA_OF_ASC_NODE":298.4804,"ARG_OF_PERICENTER":90.6581,"MEAN_ANOMALY":269.4552,"EPHEMERIS_TYPE":0,"CLASSIFICATION_TYPE":"U","NORAD_CAT_ID":65827,"ELEMENT_SET_NO":999,"REV_AT_EPOCH":5468,"BSTAR":0.00026476644,"MEAN_MOTION_DOT":0.0000858,"MEAN_MOTION_DDOT":0},{"OBJECT_NAME":"STARLINK-35396","OBJECT_ID":"2025-221F","EPOCH":"2026-09-12T04:06:28.553184","MEAN_MOTION":15.34415455,"ECCENTRICITY":0.00013635,"INCLINATION":53.1594,"RA_OF_ASC_NODE":298.6788,"ARG_OF_PERICENTER":96.6867,"MEAN_ANOMALY":263.4291,"EPHEMERIS_TYPE":0,"CLASSIFICATION_TYPE":"U","NORAD_CAT_ID":65828,"ELEMENT_SET_NO":999,"REV_AT_EPOCH":5468,"BSTAR":0.00043229769,"MEAN_MOTION_DOT":0.00014265,"MEAN_MOTION_DDOT":0},{"OBJECT_NAME":"STARLINK-35244","OBJECT_ID":"2025-221G","EPOCH":"2026-09-11T20:27:03.788352","MEAN_MOTION":15.31700432,"ECCENTRICITY":0.0001244,"INCLINATION":53.159,"RA_OF_ASC_NODE":305.249,"ARG_OF_PERICENTER":88.9739,"MEAN_ANOMALY":271.1405,"EPHEMERIS_TYPE":0,"CLASSIFICATION_TYPE":"U","NORAD_CAT_ID":65829,"ELEMENT_SET_NO":999,"REV_AT_EPOCH":5452,"BSTAR":0.00028298,"MEAN_MOTION_DOT":0.00008426,"MEAN_MOTION_DDOT":0},{"OBJECT_NAME":"STARLINK-35368","OBJECT_ID":"2025-221H","EPOCH":"2026-09-12T02:18:20.725344","MEAN_MOTION":15.34403976,"ECCENTRICITY":0.00012589,"INCLINATION":53.1568,"RA_OF_ASC_NODE":301.0536,"ARG_OF_PERICENTER":95.3388,"MEAN_ANOMALY":264.7758,"EPHEMERIS_TYPE":0,"CLASSIFICATION_TYPE":"U","NORAD_CAT_ID":65830,"ELEMENT_SET_NO":999,"REV_AT_EPOCH":5460,"BSTAR":0.0003662125,"MEAN_MOTION_DOT":0.00012018,"MEAN_MOTION_DDOT":0},{"OBJECT_NAME":"STARLINK-35337","OBJECT_ID":"2025-221J","EPOCH":"2026-09-12T03:14:58.645536","MEAN_MOTION":15.34401314,"ECCENTRICITY":0.00011468,"INCLINATION":53.1578,"RA_OF_ASC_NODE":298.4511,"ARG_OF_PERICENTER":90.995,"MEAN_ANOMALY":269.1184,"EPHEMERIS_TYPE":0,"CLASSIFICATION_TYPE":"U","NORAD_CAT_ID":65831,"ELEMENT_SET_NO":999,"REV_AT_EPOCH":5468,"BSTAR":0.00029222698,"MEAN_MOTION_DOT":0.0000951,"MEAN_MOTION_DDOT":0},{"OBJECT_NAME":"STARLINK-35277","OBJECT_ID":"2025-221K","EPOCH":"2026-09-12T04:24:39.911328","MEAN_MOTION":15.34401603,"ECCENTRICITY":0.000183,"INCLINATION":53.1601,"RA_OF_ASC_NODE":298.7574,"ARG_OF_PERICENTER":86.3153,"MEAN_ANOMALY":273.8059,"EPHEMERIS_TYPE":0,"CLASSIFICATION_TYPE":"U","NORAD_CAT_ID":65832,"ELEMENT_SET_NO":999,"REV_AT_EPOCH":5468,"BSTAR":0.00035836968,"MEAN_MOTION_DOT":0.00011751,"MEAN_MOTION_DDOT":0},{"OBJECT_NAME":"STARLINK-35345","OBJECT_ID":"2025-221L","EPOCH":"2026-09-11T20:32:39.181920","MEAN_MOTION":15.34403866,"ECCENTRICITY":0.000078,"INCLINATION":53.16,"RA_OF_ASC_NODE":300.2664,"ARG_OF_PERICENTER":77.3003,"MEAN_ANOMALY":282.8087,"EPHEMERIS_TYPE":0,"CLASSIFICATION_TYPE":"U","NORAD_CAT_ID":65833,"ELEMENT_SET_NO":999,"REV_AT_EPOCH":5463,"BSTAR":0.00038068,"MEAN_MOTION_DOT":0.00012509,"MEAN_MOTION_DDOT":0},{"OBJECT_NAME":"STARLINK-35320","OBJECT_ID":"2025-221M","EPOCH":"2026-09-11T20:09:13.377888","MEAN_MOTION":15.34412115,"ECCENTRICITY":0.0001739,"INCLINATION":53.1566,"RA_OF_ASC_NODE":302.2946,"ARG_OF_PERICENTER":71.1998,"MEAN_ANOMALY":288.9193,"EPHEMERIS_TYPE":0,"CLASSIFICATION_TYPE":"U","NORAD_CAT_ID":65834,"ELEMENT_SET_NO":999,"REV_AT_EPOCH":5325,"BSTAR":0.00028327,"MEAN_MOTION_DOT":0.0000921,"MEAN_MOTION_DDOT":0},{"OBJECT_NAME":"STARLINK-35349","OBJECT_ID":"2025-221N","EPOCH":"2026-09-12T03:18:48.671712","MEAN_MOTION":15.34407771,"ECCENTRICITY":0.00014793,"INCLINATION":53.1589,"RA_OF_ASC_NODE":300.6035,"ARG_OF_PERICENTER":106.4213,"MEAN_ANOMALY":253.6953,"EPHEMERIS_TYPE":0,"CLASSIFICATION_TYPE":"U","NORAD_CAT_ID":65835,"ELEMENT_SET_NO":999,"REV_AT_EPOCH":5330,"BSTAR":0.00036162416,"MEAN_MOTION_DOT":0.00011864,"MEAN_MOTION_DDOT":0},{"OBJECT_NAME":"STARLINK-35356","OBJECT_ID":"2025-221P","EPOCH":"2026-09-12T03:03:39.938976","MEAN_MOTION":15.34401497,"ECCENTRICITY":0.00012597,"INCLINATION":53.1589,"RA_OF_ASC_NODE":300.5348,"ARG_OF_PERICENTER":88.7021,"MEAN_ANOMALY":271.4126,"EPHEMERIS_TYPE":0,"CLASSIFICATION_TYPE":"U","NORAD_CAT_ID":65836,"ELEMENT_SET_NO":999,"REV_AT_EPOCH":5330,"BSTAR":0.00042105003,"MEAN_MOTION_DOT":0.00013877,"MEAN_MOTION_DDOT":0},{"OBJECT_NAME":"STARLINK-35314","OBJECT_ID":"2025-221Q","EPOCH":"2026-09-12T02:26:37.667904","MEAN_MOTION":15.34410115,"ECCENTRICITY":0.00017458,"INCLINATION":53.1574,"RA_OF_ASC_NODE":298.9572,"ARG_OF_PERICENTER":84.4226,"MEAN_ANOMALY":275.6975,"EPHEMERIS_TYPE":0,"CLASSIFICATION_TYPE":"U","NORAD_CAT_ID":65837,"ELEMENT_SET_NO":999,"REV_AT_EPOCH":5332,"BSTAR":0.00050864254,"MEAN_MOTION_DOT":0.00016853,"MEAN_MOTION_DDOT":0},{"OBJECT_NAME":"STARLINK-35324","OBJECT_ID":"2025-221R","EPOCH":"2026-09-12T03:00:38.348640","MEAN_MOTION":15.34372604,"ECCENTRICITY":0.00012942,"INCLINATION":53.1594,"RA_OF_ASC_NODE":300.5227,"ARG_OF_PERICENTER":80.5296,"MEAN_ANOMALY":279.5853,"EPHEMERIS_TYPE":0,"CLASSIFICATION_TYPE":"U","NORAD_CAT_ID":65838,"ELEMENT_SET_NO":999,"REV_AT_EPOCH":5330,"BSTAR":0.0004482798,"MEAN_MOTION_DOT":0.00014786,"MEAN_MOTION_DDOT":0},{"OBJECT_NAME":"STARLINK-35102","OBJECT_ID":"2025-221S","EPOCH":"2026-09-11T20:29:37.470624","MEAN_MOTION":15.34393716,"ECCENTRICITY":0.0001578,"INCLINATION":53.1601,"RA_OF_ASC_NODE":300.2489,"ARG_OF_PERICENTER":79.2532,"MEAN_ANOMALY":280.8648,"EPHEMERIS_TYPE":0,"CLASSIFICATION_TYPE":"U","NORAD_CAT_ID":65839,"ELEMENT_SET_NO":999,"REV_AT_EPOCH":5328,"BSTAR":0.00036882,"MEAN_MOTION_DOT":0.00012103,"MEAN_MOTION_DDOT":0},{"OBJECT_NAME":"STARLINK-35364","OBJECT_ID":"2025-221T","EPOCH":"2026-09-12T03:17:59.745120","MEAN_MOTION":15.34395165,"ECCENTRICITY":0.00012392,"INCLINATION":53.1584,"RA_OF_ASC_NODE":298.4651,"ARG_OF_PERICENTER":90.6928,"MEAN_ANOMALY":269.4217,"EPHEMERIS_TYPE":0,"CLASSIFICATION_TYPE":"U","NORAD_CAT_ID":65840,"ELEMENT_SET_NO":999,"REV_AT_EPOCH":5333,"BSTAR":0.0001628138,"MEAN_MOTION_DOT":0.00005128,"MEAN_MOTION_DDOT":0},{"OBJECT_NAME":"STARLINK-35298","OBJECT_ID":"2025-221V","EPOCH":"2026-09-12T02:14:30.517728","MEAN_MOTION":15.34408687,"ECCENTRICITY":0.00017736,"INCLINATION":53.1577,"RA_OF_ASC_NODE":298.9023,"ARG_OF_PERICENTER":83.3289,"MEAN_ANOMALY":276.7915,"EPHEMERIS_TYPE":0,"CLASSIFICATION_TYPE":"U","NORAD_CAT_ID":65842,"ELEMENT_SET_NO":999,"REV_AT_EPOCH":5332,"BSTAR":0.00053970926,"MEAN_MOTION_DOT":0.00017907,"MEAN_MOTION_DDOT":0},{"OBJECT_NAME":"STARLINK-35301","OBJECT_ID":"2025-221W","EPOCH":"2026-09-12T03:33:09.264960","MEAN_MOTION":15.34408219,"ECCENTRICITY":0.00015608,"INCLINATION":53.1587,"RA_OF_ASC_NODE":298.5313,"ARG_OF_PERICENTER":106.2848,"MEAN_ANOMALY":253.8326,"EPHEMERIS_TYPE":0,"CLASSIFICATION_TYPE":"U","NORAD_CAT_ID":65843,"ELEMENT_SET_NO":999,"REV_AT_EPOCH":5333,"BSTAR":0.00046074937,"MEAN_MOTION_DOT":0.00015227,"MEAN_MOTION_DDOT":0},{"OBJECT_NAME":"STARLINK-35148","OBJECT_ID":"2025-221X","EPOCH":"2026-09-12T03:30:07.617600","MEAN_MOTION":15.34411061,"ECCENTRICITY":0.00019345,"INCLINATION":53.1578,"RA_OF_ASC_NODE":298.5201,"ARG_OF_PERICENTER":93.5309,"MEAN_ANOMALY":266.5915,"EPHEMERIS_TYPE":0,"CLASSIFICATION_TYPE":"U","NORAD_CAT_ID":65844,"ELEMENT_SET_NO":999,"REV_AT_EPOCH":5333,"BSTAR":0.00053080288,"MEAN_MOTION_DOT":0.00017606,"MEAN_MOTION_DDOT":0},{"OBJECT_NAME":"STARLINK-35302","OBJECT_ID":"2025-221Y","EPOCH":"2026-09-12T03:24:03.993696","MEAN_MOTION":15.3439815,"ECCENTRICITY":0.00012799,"INCLINATION":53.1586,"RA_OF_ASC_NODE":298.4917,"ARG_OF_PERICENTER":101.2547,"MEAN_ANOMALY":258.86,"EPHEMERIS_TYPE":0,"CLASSIFICATION_TYPE":"U","NORAD_CAT_ID":65845,"ELEMENT_SET_NO":999,"REV_AT_EPOCH":5333,"BSTAR":0.0002656561,"MEAN_MOTION_DOT":0.00008609,"MEAN_MOTION_DDOT":0},{"OBJECT_NAME":"STARLINK-35290","OBJECT_ID":"2025-221Z","EPOCH":"2026-09-12T02:38:44.857824","MEAN_MOTION":15.34403816,"ECCENTRICITY":0.00012986,"INCLINATION":53.1588,"RA_OF_ASC_NODE":299.006,"ARG_OF_PERICENTER":82.581,"MEAN_ANOMALY":277.534,"EPHEMERIS_TYPE":0,"CLASSIFICATION_TYPE":"U","NORAD_CAT_ID":65846,"ELEMENT_SET_NO":999,"REV_AT_EPOCH":5332,"BSTAR":0.00029083498,"MEAN_MOTION_DOT":0.00009464,"MEAN_MOTION_DDOT":0},{"OBJECT_NAME":"STARLINK-35262","OBJECT_ID":"2025-221AA","EPOCH":"2026-09-12T03:40:01.437888","MEAN_MOTION":15.34403743,"ECCENTRICITY":0.00015792,"INCLINATION":53.1589,"RA_OF_ASC_NODE":300.6949,"ARG_OF_PERICENTER":93.2141,"MEAN_ANOMALY":266.9043,"EPHEMERIS_TYPE":0,"CLASSIFICATION_TYPE":"U","NORAD_CAT_ID":65847,"ELEMENT_SET_NO":999,"REV_AT_EPOCH":5465,"BSTAR":0.00028793396,"MEAN_MOTION_DOT":0.00009365,"MEAN_MOTION_DDOT":0},{"OBJECT_NAME":"STARLINK-35308","OBJECT_ID":"2025-221AB","EPOCH":"2026-09-12T02:11:28.556736","MEAN_MOTION":15.34404124,"ECCENTRICITY":0.00016857,"INCLINATION":53.1591,"RA_OF_ASC_NODE":298.8874,"ARG_OF_PERICENTER":103.6044,"MEAN_ANOMALY":256.5147,"EPHEMERIS_TYPE":0,"CLASSIFICATION_TYPE":"U","NORAD_CAT_ID":65848,"ELEMENT_SET_NO":999,"REV_AT_EPOCH":5467,"BSTAR":0.0003924186,"MEAN_MOTION_DOT":0.00012907,"MEAN_MOTION_DDOT":0},{"OBJECT_NAME":"STARLINK-35231","OBJECT_ID":"2025-221AC","EPOCH":"2026-09-11T13:08:35.595744","MEAN_MOTION":15.34401663,"ECCENTRICITY":0.00008063,"INCLINATION":53.1595,"RA_OF_ASC_NODE":303.3118,"ARG_OF_PERICENTER":91.6632,"MEAN_ANOMALY":268.4463,"EPHEMERIS_TYPE":0,"CLASSIFICATION_TYPE":"U","NORAD_CAT_ID":65849,"ELEMENT_SET_NO":999,"REV_AT_EPOCH":5456,"BSTAR":0.00029919754,"MEAN_MOTION_DOT":0.00009747,"MEAN_MOTION_DDOT":0},{"OBJECT_NAME":"STARLINK-35252","OBJECT_ID":"2025-221AD","EPOCH":"2026-09-12T04:01:13.827360","MEAN_MOTION":15.34399287,"ECCENTRICITY":0.000128,"INCLINATION":53.1571,"RA_OF_ASC_NODE":300.7832,"ARG_OF_PERICENTER":97.6661,"MEAN_ANOMALY":262.4487,"EPHEMERIS_TYPE":0,"CLASSIFICATION_TYPE":"U","NORAD_CAT_ID":65850,"ELEMENT_SET_NO":999,"REV_AT_EPOCH":5465,"BSTAR":0.00011981305,"MEAN_MOTION_DOT":0.00003674,"MEAN_MOTION_DDOT":0}]